����,���ϕ���(m/s),���ϕ���,�ő�u�ԕ���(m/s),�ő啗��������,�C��(��),���x(%),10���Ԉړ��ώZ�J��(mm),1���Ԉړ��ώZ�J��(mm),���J��(mm),�݌v�J��(mm),����(���ώZ)(MJ/m2),����(���ώZ)(min),���n�C��(hPa),�C�ʋC��(hPa)
2024-04-15T00:00:00+09:00,2.1,��,4.2,��,14.6,73.3,0,0,0,0,25.35,678,1009.3,1023.3
2024-04-15T00:01:00+09:00,2.4,���쐼,4.9,��,14.5,72.6,0,0,0,0,0,0,1009.3,1023.3
2024-04-15T00:02:00+09:00,2.6,���쐼,4.9,��,14.4,72.9,0,0,0,0,0,0,1009.2,1023.2
2024-04-15T00:03:00+09:00,2.7,���쐼,4.9,��,14.5,73.6,0,0,0,0,0,0,1009.2,1023.2
2024-04-15T00:04:00+09:00,2.7,���쐼,4.9,��,14.5,73.7,0,0,0,0,0,0,1009.3,1023.3
2024-04-15T00:05:00+09:00,2.8,���쐼,4.9,��,14.4,74,0,0,0,0,0,0,1009.3,1023.3
2024-04-15T00:06:00+09:00,2.8,��,4.9,��,14.6,74.3,0,0,0,0,0,0,1009.3,1023.3
2024-04-15T00:07:00+09:00,2.8,���쐼,4.9,��,14.6,74.1,0,0,0,0,0,0,1009.3,1023.3
2024-04-15T00:08:00+09:00,2.7,���쐼,4.9,��,15.1,74.8,0,0,0,0,0,0,1009.2,1023.1
2024-04-15T00:09:00+09:00,2.7,���쐼,4.9,��,15,73.3,0,0,0,0,0,0,1009.2,1023.1
2024-04-15T00:10:00+09:00,2.7,���쐼,4.9,��,15,72.8,0,0,0,0,0,0,1009.2,1023.1
2024-04-15T00:11:00+09:00,2.7,���쐼,4.6,��,15,72.5,0,0,0,0,0,0,1009.3,1023.2
2024-04-15T00:12:00+09:00,2.7,���쐼,4.6,��,15,72.8,0,0,0,0,0,0,1009.2,1023.1
2024-04-15T00:13:00+09:00,2.6,���쐼,4.6,��,15.3,74.1,0,0,0,0,0,0,1009.2,1023.1
2024-04-15T00:14:00+09:00,2.4,���쐼,4.6,��,15,72.4,0,0,0,0,0,0,1009.3,1023.2
2024-04-15T00:15:00+09:00,2.4,���쐼,4.6,��,14.9,71.9,0,0,0,0,0,0,1009.2,1023.2
2024-04-15T00:16:00+09:00,2.4,���쐼,4.6,��,15,72.5,0,0,0,0,0,0,1009.2,1023.1
2024-04-15T00:17:00+09:00,2.3,���쐼,4.6,��,15.1,72.6,0,0,0,0,0,0,1009.2,1023.1
2024-04-15T00:18:00+09:00,2.3,���쐼,4.6,��,15.1,72.1,0,0,0,0,0,0,1009.2,1023.1
2024-04-15T00:19:00+09:00,2.1,���쐼,4.6,��,15,71.9,0,0,0,0,0,0,1009.2,1023.1
2024-04-15T00:20:00+09:00,2.1,���쐼,4.6,��,14.9,71.7,0,0,0,0,0,0,1009.2,1023.2
2024-04-15T00:21:00+09:00,2,���쐼,3.4,���쐼,14.5,71.6,0,0,0,0,0,0,1009.2,1023.2
2024-04-15T00:22:00+09:00,2,���쐼,3.1,��,14.2,72.6,0,0,0,0,0,0,1009.2,1023.2
2024-04-15T00:23:00+09:00,1.9,���쐼,3.1,��,14.3,73.9,0,0,0,0,0,0,1009.2,1023.2
2024-04-15T00:24:00+09:00,1.9,���쐼,3.1,��,14.5,74.1,0,0,0,0,0,0,1009.2,1023.2
2024-04-15T00:25:00+09:00,1.8,���쐼,3.1,��,14.6,73.8,0,0,0,0,0,0,1009.2,1023.2
2024-04-15T00:26:00+09:00,1.7,���쐼,3.1,��,14.6,73.6,0,0,0,0,0,0,1009.2,1023.2
2024-04-15T00:27:00+09:00,1.7,���쐼,3.1,��,14.8,73.4,0,0,0,0,0,0,1009.2,1023.2
2024-04-15T00:28:00+09:00,1.6,���쐼,3.1,��,14.9,72.4,0,0,0,0,0,0,1009.2,1023.2
2024-04-15T00:29:00+09:00,1.5,���쐼,3.1,��,14.8,72.3,0,0,0,0,0,0,1009.3,1023.3
2024-04-15T00:30:00+09:00,1.3,���쐼,3.1,��,14.7,72.5,0,0,0,0,0,0,1009.2,1023.2
2024-04-15T00:31:00+09:00,1.1,�쐼,2.5,���쐼,14.7,72.8,0,0,0,0,0,0,1009.2,1023.2
2024-04-15T00:32:00+09:00,1,�쐼,2.5,���쐼,14.7,73.4,0,0,0,0,0,0,1009.2,1023.2
2024-04-15T00:33:00+09:00,0.9,�쐼,2.5,���쐼,14.8,73.6,0,0,0,0,0,0,1009.2,1023.2
2024-04-15T00:34:00+09:00,0.9,�쐼,2.5,���쐼,14.9,74.5,0,0,0,0,0,0,1009.2,1023.2
2024-04-15T00:35:00+09:00,0.7,�쐼,1.9,��,14.6,73.6,0,0,0,0,0,0,1009.2,1023.2
2024-04-15T00:36:00+09:00,0.6,�쐼,1.9,��,14.5,73.5,0,0,0,0,0,0,1009.2,1023.2
2024-04-15T00:37:00+09:00,0.5,�쐼,1.8,���쐼,14.4,73.9,0,0,0,0,0,0,1009.2,1023.2
2024-04-15T00:38:00+09:00,0.5,�쐼,1.3,��,14.1,73.9,0,0,0,0,0,0,1009.2,1023.2
2024-04-15T00:39:00+09:00,0.5,�쐼,1.4,���쐼,14,74.8,0,0,0,0,0,0,1009.2,1023.2
2024-04-15T00:40:00+09:00,0.6,���쐼,1.4,���쐼,14.2,76.5,0,0,0,0,0,0,1009.2,1023.2
2024-04-15T00:41:00+09:00,0.7,���쐼,1.6,��,14.4,77.2,0,0,0,0,0,0,1009.2,1023.2
2024-04-15T00:42:00+09:00,0.7,���쐼,1.6,��,14.1,74.7,0,0,0,0,0,0,1009.2,1023.2
2024-04-15T00:43:00+09:00,0.8,���쐼,1.6,��,14.2,75.4,0,0,0,0,0,0,1009.2,1023.2
2024-04-15T00:44:00+09:00,0.9,���쐼,1.6,��,14.2,76.5,0,0,0,0,0,0,1009.2,1023.2
2024-04-15T00:45:00+09:00,1,��,2,��,13.8,75.4,0,0,0,0,0,0,1009.2,1023.2
2024-04-15T00:46:00+09:00,1.1,��,2,��,13.8,76.5,0,0,0,0,0,0,1009.2,1023.2
2024-04-15T00:47:00+09:00,1.1,��,2,��,13.9,77.5,0,0,0,0,0,0,1009.3,1023.3
2024-04-15T00:48:00+09:00,1.1,��,2,��,14,78.1,0,0,0,0,0,0,1009.2,1023.2
2024-04-15T00:49:00+09:00,1.1,��,2,��,14.4,79.9,0,0,0,0,0,0,1009.2,1023.2
2024-04-15T00:50:00+09:00,1,��,2,��,14.3,78.6,0,0,0,0,0,0,1009.3,1023.3
2024-04-15T00:51:00+09:00,1,��,2,��,14.3,77.4,0,0,0,0,0,0,1009.3,1023.3
2024-04-15T00:52:00+09:00,1,��,2.1,��,14.1,75.8,0,0,0,0,0,0,1009.3,1023.3
2024-04-15T00:53:00+09:00,1,��,2.3,��,13.6,75.4,0,0,0,0,0,0,1009.3,1023.3
2024-04-15T00:54:00+09:00,1.1,��,2.3,��,13.5,76.7,0,0,0,0,0,0,1009.3,1023.3
2024-04-15T00:55:00+09:00,1.1,��,2.3,��,13.5,77.4,0,0,0,0,0,0,1009.3,1023.3
2024-04-15T00:56:00+09:00,1.1,��,2.3,��,13.5,77.5,0,0,0,0,0,0,1009.4,1023.4
2024-04-15T00:57:00+09:00,1,��,2.3,��,14,77.9,0,0,0,0,0,0,1009.4,1023.4
2024-04-15T00:58:00+09:00,1,��,2.3,��,14.2,77.7,0,0,0,0,0,0,1009.4,1023.4
2024-04-15T00:59:00+09:00,1,��,2.3,��,14.4,79,0,0,0,0,0,0,1009.4,1023.4
2024-04-15T01:00:00+09:00,1,��,2.3,��,14.6,77.9,0,0,0,0,0,0,1009.3,1023.3
2024-04-15T01:01:00+09:00,1,��,2.3,��,14.7,78,0,0,0,0,0,0,1009.3,1023.3
2024-04-15T01:02:00+09:00,0.9,��,2.3,��,14.4,77.2,0,0,0,0,0,0,1009.4,1023.4
2024-04-15T01:03:00+09:00,0.7,��,1.9,��,14.2,76.7,0,0,0,0,0,0,1009.4,1023.4
2024-04-15T01:04:00+09:00,0.7,��,1.5,��,14.2,77.5,0,0,0,0,0,0,1009.4,1023.4
2024-04-15T01:05:00+09:00,0.6,���쐼,1.3,���k��,14.4,78,0,0,0,0,0,0,1009.4,1023.4
2024-04-15T01:06:00+09:00,0.5,���쐼,1.1,�k��,14.7,78.9,0,0,0,0,0,0,1009.3,1023.3
2024-04-15T01:07:00+09:00,0.5,�쐼,1,��,14.7,78.6,0,0,0,0,0,0,1009.4,1023.4
2024-04-15T01:08:00+09:00,0.5,�쐼,1,��,14.7,78.2,0,0,0,0,0,0,1009.3,1023.3
2024-04-15T01:09:00+09:00,0.6,�쐼,1.2,��쐼,14.6,77.9,0,0,0,0,0,0,1009.3,1023.3
2024-04-15T01:10:00+09:00,0.6,�쐼,1.2,��쐼,14.7,77.9,0,0,0,0,0,0,1009.3,1023.3
2024-04-15T01:11:00+09:00,0.7,�쐼,1.2,��쐼,14.7,77.5,0,0,0,0,0,0,1009.3,1023.3
2024-04-15T01:12:00+09:00,0.7,�쐼,1.2,��쐼,14.5,77.5,0,0,0,0,0,0,1009.3,1023.3
2024-04-15T01:13:00+09:00,0.7,��쐼,1.2,��쐼,14,78,0,0,0,0,0,0,1009.3,1023.3
2024-04-15T01:14:00+09:00,0.7,��쐼,1.2,��쐼,14.2,79.3,0,0,0,0,0,0,1009.3,1023.3
2024-04-15T01:15:00+09:00,0.7,��쐼,1.2,��쐼,14.6,79.4,0,0,0,0,0,0,1009.2,1023.2
2024-04-15T01:16:00+09:00,0.8,��쐼,1.2,��쐼,14.5,78.8,0,0,0,0,0,0,1009.2,1023.2
2024-04-15T01:17:00+09:00,0.8,��쐼,1.3,��,14.4,78.7,0,0,0,0,0,0,1009.2,1023.2
2024-04-15T01:18:00+09:00,0.8,��쐼,1.3,��,14.3,78.8,0,0,0,0,0,0,1009.2,1023.2
2024-04-15T01:19:00+09:00,0.8,��쐼,1.3,��,14.2,78.3,0,0,0,0,0,0,1009.3,1023.3
2024-04-15T01:20:00+09:00,0.7,��쐼,1.3,��,14.1,78,0,0,0,0,0,0,1009.3,1023.3
2024-04-15T01:21:00+09:00,0.7,��쐼,1.3,��,13.9,78.5,0,0,0,0,0,0,1009.3,1023.3
2024-04-15T01:22:00+09:00,0.7,�쐼,1.4,��,13.6,78.3,0,0,0,0,0,0,1009.2,1023.2
2024-04-15T01:23:00+09:00,0.8,�쐼,1.4,��,13.3,78.4,0,0,0,0,0,0,1009.3,1023.3
2024-04-15T01:24:00+09:00,0.9,�쐼,1.4,��,13.4,79.6,0,0,0,0,0,0,1009.2,1023.2
2024-04-15T01:25:00+09:00,0.9,�쐼,1.4,��,13.6,80.6,0,0,0,0,0,0,1009.3,1023.3
2024-04-15T01:26:00+09:00,0.8,���쐼,1.4,��,14,81.9,0,0,0,0,0,0,1009.3,1023.3
2024-04-15T01:27:00+09:00,0.8,���쐼,1.4,��,13.9,81,0,0,0,0,0,0,1009.3,1023.3
2024-04-15T01:28:00+09:00,0.7,���쐼,1.4,��,13.9,80.6,0,0,0,0,0,0,1009.3,1023.3
2024-04-15T01:29:00+09:00,0.8,���쐼,1.4,��,13.8,80.6,0,0,0,0,0,0,1009.3,1023.3
2024-04-15T01:30:00+09:00,0.8,���쐼,1.4,��,13.6,80.4,0,0,0,0,0,0,1009.3,1023.3
2024-04-15T01:31:00+09:00,0.8,���쐼,1.4,��,13.7,80.8,0,0,0,0,0,0,1009.3,1023.3
2024-04-15T01:32:00+09:00,0.7,���쐼,1.4,��,13.8,81.4,0,0,0,0,0,0,1009.3,1023.3
2024-04-15T01:33:00+09:00,0.7,���쐼,1.4,��,13.9,81.2,0,0,0,0,0,0,1009.3,1023.3
2024-04-15T01:34:00+09:00,0.7,���쐼,1.5,��,13.9,80.8,0,0,0,0,0,0,1009.2,1023.2
2024-04-15T01:35:00+09:00,0.7,���쐼,1.8,��,13.7,79.7,0,0,0,0,0,0,1009.2,1023.2
2024-04-15T01:36:00+09:00,0.9,���쐼,2,��,13.6,79.8,0,0,0,0,0,0,1009.2,1023.2
2024-04-15T01:37:00+09:00,0.9,��,2.3,��,13.6,79.6,0,0,0,0,0,0,1009.2,1023.2
2024-04-15T01:38:00+09:00,0.9,��,2.3,��,13.6,80.1,0,0,0,0,0,0,1009.2,1023.2
2024-04-15T01:39:00+09:00,0.9,��,2.3,��,13.8,80.7,0,0,0,0,0,0,1009.2,1023.2
2024-04-15T01:40:00+09:00,0.8,��,2.3,��,13.8,81,0,0,0,0,0,0,1009.2,1023.2
2024-04-15T01:41:00+09:00,0.8,��,2.3,��,13.9,81,0,0,0,0,0,0,1009.2,1023.2
2024-04-15T01:42:00+09:00,0.9,��,2.3,��,13.6,80,0,0,0,0,0,0,1009.2,1023.2
2024-04-15T01:43:00+09:00,1,��,2.3,��,13.5,80.3,0,0,0,0,0,0,1009.2,1023.2
2024-04-15T01:44:00+09:00,1,��,2.3,��,13.4,80.5,0,0,0,0,0,0,1009.2,1023.2
2024-04-15T01:45:00+09:00,1,��,2.3,��,13.5,81.2,0,0,0,0,0,0,1009.2,1023.2
2024-04-15T01:46:00+09:00,1,���쐼,2.3,��,13.7,81.3,0,0,0,0,0,0,1009.1,1023.1
2024-04-15T01:47:00+09:00,0.9,���쐼,2.3,���쐼,14,81.3,0,0,0,0,0,0,1009.2,1023.2
2024-04-15T01:48:00+09:00,0.9,���쐼,2.3,���쐼,14.1,80.7,0,0,0,0,0,0,1009.2,1023.2
2024-04-15T01:49:00+09:00,0.9,���쐼,2.3,���쐼,14.2,80.6,0,0,0,0,0,0,1009.2,1023.2
2024-04-15T01:50:00+09:00,0.9,���쐼,2.3,���쐼,14,79.8,0,0,0,0,0,0,1009.2,1023.2
2024-04-15T01:51:00+09:00,0.9,���쐼,2.3,���쐼,14.2,79.7,0,0,0,0,0,0,1009.2,1023.2
2024-04-15T01:52:00+09:00,0.8,�쐼,2.3,���쐼,14.3,79.3,0,0,0,0,0,0,1009.2,1023.2
2024-04-15T01:53:00+09:00,0.7,���쐼,1.6,��,14.3,78.5,0,0,0,0,0,0,1009.1,1023.1
2024-04-15T01:54:00+09:00,0.6,�쐼,1.4,��쐼,14.1,78.3,0,0,0,0,0,0,1009.2,1023.2
2024-04-15T01:55:00+09:00,0.5,�쐼,1.4,��쐼,13.9,78.5,0,0,0,0,0,0,1009.1,1023.1
2024-04-15T01:56:00+09:00,0.4,�쐼,1.3,��,13.9,78.8,0,0,0,0,0,0,1009.1,1023.1
2024-04-15T01:57:00+09:00,0.4,�쐼,1.3,��,13.8,79.1,0,0,0,0,0,0,1009.1,1023.1
2024-04-15T01:58:00+09:00,0.4,���쐼,1.7,���쐼,14,79.8,0,0,0,0,0,0,1009.1,1023.1
2024-04-15T01:59:00+09:00,0.4,���쐼,1.7,���쐼,13.7,78.4,0,0,0,0,0,0,1009.2,1023.2
2024-04-15T02:00:00+09:00,0.5,���쐼,1.7,���쐼,13.8,79.3,0,0,0,0,0,0,1009.1,1023.1
2024-04-15T02:01:00+09:00,0.5,���쐼,1.7,���쐼,13.6,79.7,0,0,0,0,0,0,1009.1,1023.1
2024-04-15T02:02:00+09:00,0.5,���쐼,1.7,���쐼,13.9,80.7,0,0,0,0,0,0,1009.1,1023.1
2024-04-15T02:03:00+09:00,0.5,���쐼,1.7,���쐼,13.7,80.4,0,0,0,0,0,0,1009.2,1023.2
2024-04-15T02:04:00+09:00,0.5,���쐼,1.7,���쐼,13.5,80.6,0,0,0,0,0,0,1009.1,1023.1
2024-04-15T02:05:00+09:00,0.6,���쐼,1.7,���쐼,13.4,80.3,0,0,0,0,0,0,1009.1,1023.1
2024-04-15T02:06:00+09:00,0.7,���쐼,1.7,���쐼,13.4,80.1,0,0,0,0,0,0,1009.2,1023.2
2024-04-15T02:07:00+09:00,0.8,��,1.7,���쐼,13.4,79.7,0,0,0,0,0,0,1009.2,1023.2
2024-04-15T02:08:00+09:00,0.8,��,1.7,��,13.5,79.8,0,0,0,0,0,0,1009.2,1023.2
2024-04-15T02:09:00+09:00,0.7,��,1.6,���k��,13.6,80.5,0,0,0,0,0,0,1009.1,1023.1
2024-04-15T02:10:00+09:00,0.7,��,1.6,���k��,13.9,80.6,0,0,0,0,0,0,1009.1,1023.1
2024-04-15T02:11:00+09:00,0.7,��,1.6,���k��,13.9,79.8,0,0,0,0,0,0,1009.2,1023.2
2024-04-15T02:12:00+09:00,0.7,��,1.6,���k��,13.7,80,0,0,0,0,0,0,1009.2,1023.2
2024-04-15T02:13:00+09:00,0.8,���k��,1.6,���k��,13.7,80.5,0,0,0,0,0,0,1009.2,1023.2
2024-04-15T02:14:00+09:00,0.8,���k��,1.6,���k��,13.6,79.8,0,0,0,0,0,0,1009.1,1023.1
2024-04-15T02:15:00+09:00,0.8,���k��,1.7,���k��,13.6,79.9,0,0,0,0,0,0,1009.1,1023.1
2024-04-15T02:16:00+09:00,0.8,���k��,1.7,���k��,13.9,80.1,0,0,0,0,0,0,1009.2,1023.2
2024-04-15T02:17:00+09:00,0.7,��,1.7,���k��,13.9,79.5,0,0,0,0,0,0,1009.1,1023.1
2024-04-15T02:18:00+09:00,0.7,���k��,1.7,���k��,13.8,80,0,0,0,0,0,0,1009.2,1023.2
2024-04-15T02:19:00+09:00,0.6,���k��,1.7,���k��,13.8,80.6,0,0,0,0,0,0,1009.2,1023.2
2024-04-15T02:20:00+09:00,0.6,���k��,1.7,���k��,14,82.2,0,0,0,0,0,0,1009.1,1023.1
2024-04-15T02:21:00+09:00,0.5,�k��,1.7,���k��,14,81.5,0,0,0,0,0,0,1009.1,1023.1
2024-04-15T02:22:00+09:00,0.5,�k�k��,1.7,���k��,14,81.9,0,0,0,0,0,0,1009.1,1023.1
2024-04-15T02:23:00+09:00,0.5,�k,1.7,���k��,14,81.7,0,0,0,0,0,0,1009.2,1023.2
2024-04-15T02:24:00+09:00,0.4,�k�k��,1.7,���k��,14.2,82.5,0,0,0,0,0,0,1009.1,1023.1
2024-04-15T02:25:00+09:00,0.4,���k��,1,��,14.4,82.7,0,0,0,0,0,0,1009.1,1023.1
2024-04-15T02:26:00+09:00,0.3,��,0.8,���쐼,14.4,82.3,0,0,0,0,0,0,1009,1023
2024-04-15T02:27:00+09:00,0.3,��,0.6,�쓌,14.3,81.2,0,0,0,0,0,0,1009.1,1023.1
2024-04-15T02:28:00+09:00,0.3,��,0.6,�쓌,14.2,82.1,0,0,0,0,0,0,1009,1023
2024-04-15T02:29:00+09:00,0.3,���쓌,0.6,�쓌,14.2,81.6,0,0,0,0,0,0,1009.1,1023.1
2024-04-15T02:30:00+09:00,0.2,�É�,0.6,�쓌,14.1,80.9,0,0,0,0,0,0,1009.1,1023.1
2024-04-15T02:31:00+09:00,0.2,�É�,0.6,�쓌,14.3,80.7,0,0,0,0,0,0,1009.1,1023.1
2024-04-15T02:32:00+09:00,0.2,�É�,0.6,�쓌,14.2,81.1,0,0,0,0,0,0,1009.1,1023.1
2024-04-15T02:33:00+09:00,0.2,�É�,0.6,�쓌,14,80.5,0,0,0,0,0,0,1009.1,1023.1
2024-04-15T02:34:00+09:00,0.2,�É�,0.6,�쓌,13.9,80.2,0,0,0,0,0,0,1009.1,1023.1
2024-04-15T02:35:00+09:00,0.2,�É�,0.6,�쓌,13.9,80.9,0,0,0,0,0,0,1009.1,1023.1
2024-04-15T02:36:00+09:00,0.2,�É�,0.6,��,14,81.8,0,0,0,0,0,0,1009.2,1023.2
2024-04-15T02:37:00+09:00,0.2,�É�,1,��,14,82.9,0,0,0,0,0,0,1009.1,1023.1
2024-04-15T02:38:00+09:00,0.3,��,1,��,13.8,81.1,0,0,0,0,0,0,1009.1,1023.1
2024-04-15T02:39:00+09:00,0.3,��,1,��,13.6,81,0,0,0,0,0,0,1009.1,1023.1
2024-04-15T02:40:00+09:00,0.3,���쓌,1,��,14,83.9,0,0,0,0,0,0,1009.2,1023.2
2024-04-15T02:41:00+09:00,0.3,���쓌,1,��,14,82.1,0,0,0,0,0,0,1009.2,1023.2
2024-04-15T02:42:00+09:00,0.3,���쓌,1,��,13.6,81.3,0,0,0,0,0,0,1009.1,1023.1
2024-04-15T02:43:00+09:00,0.4,���쓌,1,��,13.6,82.4,0,0,0,0,0,0,1009.1,1023.1
2024-04-15T02:44:00+09:00,0.4,���쓌,1,��,13.7,83.7,0,0,0,0,0,0,1009.1,1023.1
2024-04-15T02:45:00+09:00,0.4,�쓌,1,��,14,84.4,0,0,0,0,0,0,1009.1,1023.1
2024-04-15T02:46:00+09:00,0.4,�쓌,1,��,13.8,83,0,0,0,0,0,0,1009.2,1023.2
2024-04-15T02:47:00+09:00,0.3,��쓌,0.9,���k��,13.9,83.6,0,0,0,0,0,0,1009.2,1023.2
2024-04-15T02:48:00+09:00,0.3,��쓌,0.9,���k��,13.8,83.4,0,0,0,0,0,0,1009.2,1023.2
2024-04-15T02:49:00+09:00,0.3,��,0.8,��쐼,13.8,82.6,0,0,0,0,0,0,1009.1,1023.1
2024-04-15T02:50:00+09:00,0.4,��,0.9,��쐼,13.3,81.3,0,0,0,0,0,0,1009.1,1023.1
2024-04-15T02:51:00+09:00,0.4,��,0.9,��쐼,13.1,82.6,0,0,0,0,0,0,1009.1,1023.1
2024-04-15T02:52:00+09:00,0.4,��,0.9,��쐼,13.3,84.7,0,0,0,0,0,0,1009.2,1023.2
2024-04-15T02:53:00+09:00,0.4,��,0.9,��쐼,13.4,84,0,0,0,0,0,0,1009.1,1023.1
2024-04-15T02:54:00+09:00,0.4,��,0.9,��쐼,13.3,82.9,0,0,0,0,0,0,1009.2,1023.2
2024-04-15T02:55:00+09:00,0.5,��쐼,1.3,��쐼,13.5,84.3,0,0,0,0,0,0,1009.1,1023.1
2024-04-15T02:56:00+09:00,0.5,��쐼,1.3,��쐼,13.6,84.6,0,0,0,0,0,0,1009.1,1023.1
2024-04-15T02:57:00+09:00,0.5,��쐼,1.3,��쐼,13.2,83.2,0,0,0,0,0,0,1009.2,1023.2
2024-04-15T02:58:00+09:00,0.6,��쐼,1.3,��쐼,12.9,84,0,0,0,0,0,0,1009.2,1023.2
2024-04-15T02:59:00+09:00,0.6,��쐼,1.3,��쐼,13.1,85.8,0,0,0,0,0,0,1009.1,1023.1
2024-04-15T03:00:00+09:00,0.6,��쐼,1.3,��쐼,13.4,87.3,0,0,0,0,0,0,1009.1,1023.1
2024-04-15T03:01:00+09:00,0.6,��쐼,1.3,��쐼,13.4,87.3,0,0,0,0,0,0,1009.1,1023.1
2024-04-15T03:02:00+09:00,0.5,��쐼,1.3,��쐼,13.6,86.1,0,0,0,0,0,0,1009.1,1023.1
2024-04-15T03:03:00+09:00,0.5,��쐼,1.3,��쐼,13.6,85.2,0,0,0,0,0,0,1009.2,1023.2
2024-04-15T03:04:00+09:00,0.5,�쐼,1.3,��쐼,13.3,83.5,0,0,0,0,0,0,1009.2,1023.2
2024-04-15T03:05:00+09:00,0.5,�쐼,1.1,��,13.1,83.4,0,0,0,0,0,0,1009.2,1023.2
2024-04-15T03:06:00+09:00,0.5,�쐼,1,��쐼,13.3,85.5,0,0,0,0,0,0,1009.2,1023.2
2024-04-15T03:07:00+09:00,0.5,�쐼,1.4,��쓌,13.6,87.2,0,0,0,0,0,0,1009.1,1023.1
2024-04-15T03:08:00+09:00,0.5,��쐼,1.4,��쓌,13.6,86.5,0,0,0,0,0,0,1009.2,1023.2
2024-04-15T03:09:00+09:00,0.5,��쐼,1.4,��쓌,13.6,85.3,0,0,0,0,0,0,1009.1,1023.1
2024-04-15T03:10:00+09:00,0.5,��쐼,1.4,��쓌,13.2,85,0,0,0,0,0,0,1009.1,1023.1
2024-04-15T03:11:00+09:00,0.6,��쐼,1.6,�쐼,13.4,87.2,0,0,0,0,0,0,1009.1,1023.1
2024-04-15T03:12:00+09:00,0.7,��쐼,1.6,�쐼,13.5,87.5,0,0,0,0,0,0,1009,1023
2024-04-15T03:13:00+09:00,0.7,�쐼,1.6,�쐼,13.2,86.5,0,0,0,0,0,0,1009.1,1023.1
2024-04-15T03:14:00+09:00,0.8,��쐼,2,�쐼,13.4,88.3,0,0,0,0,0,0,1009,1023
2024-04-15T03:15:00+09:00,0.8,��쐼,2,�쐼,13.6,88.7,0,0,0,0,0,0,1009,1023
2024-04-15T03:16:00+09:00,0.8,�쐼,2,�쐼,13.5,86.4,0,0,0,0,0,0,1009,1023
2024-04-15T03:17:00+09:00,0.8,�쐼,2,�쐼,13.7,87.6,0,0,0,0,0,0,1008.9,1022.9
2024-04-15T03:18:00+09:00,0.9,�쐼,2,�쐼,13,85.3,0,0,0,0,0,0,1008.9,1022.9
2024-04-15T03:19:00+09:00,0.9,�쐼,2,�쐼,13.1,87.6,0,0,0,0,0,0,1009,1023
2024-04-15T03:20:00+09:00,1,�쐼,2,�쐼,13.2,88.3,0,0,0,0,0,0,1009,1023
2024-04-15T03:21:00+09:00,1,�쐼,2,�쐼,13.6,89.6,0,0,0,0,0,0,1009,1023
2024-04-15T03:22:00+09:00,1.1,�쐼,2.1,��쐼,13.7,89.8,0,0,0,0,0,0,1009,1023
2024-04-15T03:23:00+09:00,1.1,�쐼,2.1,��쐼,13.5,87.9,0,0,0,0,0,0,1009,1023
2024-04-15T03:24:00+09:00,1.1,�쐼,2.1,��쐼,13,85.4,0,0,0,0,0,0,1009,1023
2024-04-15T03:25:00+09:00,1.2,�쐼,2.1,��쐼,12.6,85.2,0,0,0,0,0,0,1009,1023.1
2024-04-15T03:26:00+09:00,1.2,�쐼,2.1,��쐼,13.2,89.1,0,0,0,0,0,0,1009,1023
2024-04-15T03:27:00+09:00,1.2,�쐼,2.1,��쐼,13.5,91.2,0,0,0,0,0,0,1009,1023
2024-04-15T03:28:00+09:00,1.2,�쐼,2.1,��쐼,13.5,89.6,0,0,0,0,0,0,1009,1023
2024-04-15T03:29:00+09:00,1.2,�쐼,2.1,��쐼,13.6,88.7,0,0,0,0,0,0,1008.9,1022.9
2024-04-15T03:30:00+09:00,1.1,�쐼,2.1,��쐼,13.4,87.2,0,0,0,0,0,0,1009,1023
2024-04-15T03:31:00+09:00,0.9,�쐼,2.1,��쐼,13.6,87.1,0,0,0,0,0,0,1009,1023
2024-04-15T03:32:00+09:00,0.8,�쐼,2.1,��,13.2,86.2,0,0,0,0,0,0,1009,1023
2024-04-15T03:33:00+09:00,0.8,�쐼,2.1,��,13.1,86.3,0,0,0,0,0,0,1009,1023
2024-04-15T03:34:00+09:00,0.7,�쐼,1.7,���쐼,13.4,87.8,0,0,0,0,0,0,1009,1023
2024-04-15T03:35:00+09:00,0.7,�쐼,1.5,��쓌,13.3,87.4,0,0,0,0,0,0,1009,1023
2024-04-15T03:36:00+09:00,0.7,��쐼,1.5,��쓌,13.4,87.4,0,0,0,0,0,0,1009,1023
2024-04-15T03:37:00+09:00,0.7,��쐼,1.5,��쓌,13.3,87.3,0,0,0,0,0,0,1009,1023
2024-04-15T03:38:00+09:00,0.7,��쐼,1.5,��쓌,13.1,85.5,0,0,0,0,0,0,1008.9,1022.9
2024-04-15T03:39:00+09:00,0.6,�쐼,1.5,��쓌,12.8,85.4,0,0,0,0,0,0,1008.9,1023
2024-04-15T03:40:00+09:00,0.6,�쐼,1.5,��쓌,12.9,86.3,0,0,0,0,0,0,1008.9,1022.9
2024-04-15T03:41:00+09:00,0.6,�쐼,1.5,��쓌,13.2,87.7,0,0,0,0,0,0,1008.8,1022.8
2024-04-15T03:42:00+09:00,0.6,�쐼,1.5,��쓌,13.2,87.8,0,0,0,0,0,0,1008.8,1022.8
2024-04-15T03:43:00+09:00,0.6,��쐼,1.5,��쓌,13.3,86.7,0,0,0,0,0,0,1008.8,1022.8
2024-04-15T03:44:00+09:00,0.5,�쐼,1.5,��쓌,13.3,86.6,0,0,0,0,0,0,1008.8,1022.8
2024-04-15T03:45:00+09:00,0.5,�쐼,1.5,��쓌,13.5,87.7,0,0,0,0,0,0,1008.8,1022.8
2024-04-15T03:46:00+09:00,0.4,�쐼,1,��,13.5,86.8,0,0,0,0,0,0,1008.8,1022.8
2024-04-15T03:47:00+09:00,0.4,�쐼,1,��,13.5,87,0,0,0,0,0,0,1008.8,1022.8
2024-04-15T03:48:00+09:00,0.4,�쐼,1,��,13.4,86.5,0,0,0,0,0,0,1008.8,1022.8
2024-04-15T03:49:00+09:00,0.4,�쐼,1,��,13.4,87.2,0,0,0,0,0,0,1008.8,1022.8
2024-04-15T03:50:00+09:00,0.4,�쐼,1,��,13.3,85.8,0,0,0,0,0,0,1008.8,1022.8
2024-04-15T03:51:00+09:00,0.4,�쐼,1,��,13.3,86.2,0,0,0,0,0,0,1008.7,1022.7
2024-04-15T03:52:00+09:00,0.4,�쐼,1,��,13.3,86.9,0,0,0,0,0,0,1008.7,1022.7
2024-04-15T03:53:00+09:00,0.4,�쐼,1,��,13.1,85.9,0,0,0,0,0,0,1008.7,1022.7
2024-04-15T03:54:00+09:00,0.4,�쐼,1,��,13.1,85.8,0,0,0,0,0,0,1008.7,1022.7
2024-04-15T03:55:00+09:00,0.4,�쐼,0.8,��,12.9,85.3,0,0,0,0,0,0,1008.7,1022.7
2024-04-15T03:56:00+09:00,0.4,���쐼,1,�쐼,13.2,89,0,0,0,0,0,0,1008.7,1022.7
2024-04-15T03:57:00+09:00,0.4,���쐼,1,�쐼,12.9,88.1,0,0,0,0,0,0,1008.7,1022.7
2024-04-15T03:58:00+09:00,0.4,���쐼,1,�쐼,13,89.1,0,0,0,0,0,0,1008.7,1022.7
2024-04-15T03:59:00+09:00,0.4,���쐼,1,�쐼,12.7,88.5,0,0,0,0,0,0,1008.8,1022.9
2024-04-15T04:00:00+09:00,0.4,���쐼,1,�쐼,13,89.9,0,0,0,0,0,0,1008.7,1022.7
2024-04-15T04:01:00+09:00,0.5,���쐼,1.1,���k��,12.9,88.3,0,0,0,0,0,0,1008.7,1022.7
2024-04-15T04:02:00+09:00,0.5,���쐼,1.1,���k��,12.9,87.6,0,0,0,0,0,0,1008.6,1022.6
2024-04-15T04:03:00+09:00,0.6,���쐼,1.1,���k��,12.7,87.8,0,0,0,0,0,0,1008.6,1022.7
2024-04-15T04:04:00+09:00,0.6,���쐼,1.2,��,12.7,89.6,0,0,0,0,0,0,1008.6,1022.7
2024-04-15T04:05:00+09:00,0.6,���쐼,1.2,��,12.9,90.8,0,0,0,0,0,0,1008.6,1022.6
2024-04-15T04:06:00+09:00,0.6,���쐼,1.2,��,13,90.6,0,0,0,0,0,0,1008.6,1022.6
2024-04-15T04:07:00+09:00,0.6,���쐼,1.2,��,13.3,90.7,0,0,0,0,0,0,1008.6,1022.6
2024-04-15T04:08:00+09:00,0.6,���쐼,1.2,��,13.5,89.9,0,0,0,0,0,0,1008.5,1022.5
2024-04-15T04:09:00+09:00,0.6,���쐼,1.2,��,13.5,89.1,0,0,0,0,0,0,1008.5,1022.5
2024-04-15T04:10:00+09:00,0.6,�쐼,1.2,��,13.4,88.8,0,0,0,0,0,0,1008.5,1022.5
2024-04-15T04:11:00+09:00,0.6,�쐼,1.2,��,13.4,88.2,0,0,0,0,0,0,1008.5,1022.5
2024-04-15T04:12:00+09:00,0.6,�쐼,1.2,��,13.4,87.6,0,0,0,0,0,0,1008.5,1022.5
2024-04-15T04:13:00+09:00,0.6,��쐼,1.5,��쐼,13.1,87.2,0,0,0,0,0,0,1008.5,1022.5
2024-04-15T04:14:00+09:00,0.6,��쐼,1.6,��,13.3,88.3,0,0,0,0,0,0,1008.5,1022.5
2024-04-15T04:15:00+09:00,0.6,��쐼,1.6,��,13.2,88.3,0,0,0,0,0,0,1008.5,1022.5
2024-04-15T04:16:00+09:00,0.6,��쐼,1.6,��,13.2,88.3,0,0,0,0,0,0,1008.5,1022.5
2024-04-15T04:17:00+09:00,0.6,��쐼,1.6,��,13.3,88.1,0,0,0,0,0,0,1008.5,1022.5
2024-04-15T04:18:00+09:00,0.7,��쐼,1.6,��,13.3,87.8,0,0,0,0,0,0,1008.5,1022.5
2024-04-15T04:19:00+09:00,0.7,��쐼,1.6,��,13.1,87.4,0,0,0,0,0,0,1008.5,1022.5
2024-04-15T04:20:00+09:00,0.7,��쐼,1.6,��,13.1,87.7,0,0,0,0,0,0,1008.4,1022.4
2024-04-15T04:21:00+09:00,0.7,��쐼,1.6,��,13.2,88.4,0,0,0,0,0,0,1008.4,1022.4
2024-04-15T04:22:00+09:00,0.6,��쐼,1.6,��,13.2,88.4,0,0,0,0,0,0,1008.4,1022.4
2024-04-15T04:23:00+09:00,0.6,��쐼,1.6,��,13.1,87.9,0,0,0,0,0,0,1008.4,1022.4
2024-04-15T04:24:00+09:00,0.5,�쐼,1.2,��쐼,13.1,87.8,0,0,0,0,0,0,1008.4,1022.4
2024-04-15T04:25:00+09:00,0.5,�쐼,1.2,��쐼,12.9,87.2,0,0,0,0,0,0,1008.4,1022.4
2024-04-15T04:26:00+09:00,0.5,�쐼,1.1,�쐼,12.8,87,0,0,0,0,0,0,1008.4,1022.4
2024-04-15T04:27:00+09:00,0.4,�쐼,1.1,�쐼,12.8,87.5,0,0,0,0,0,0,1008.3,1022.3
2024-04-15T04:28:00+09:00,0.4,���쐼,1.1,�쐼,12.7,87.8,0,0,0,0,0,0,1008.4,1022.4
2024-04-15T04:29:00+09:00,0.3,���쐼,0.8,���쐼,12.8,88.5,0,0,0,0,0,0,1008.3,1022.3
2024-04-15T04:30:00+09:00,0.3,���쐼,0.8,���쐼,13.1,88.9,0,0,0,0,0,0,1008.3,1022.3
2024-04-15T04:31:00+09:00,0.3,���쐼,0.8,���쐼,13.1,88.3,0,0,0,0,0,0,1008.3,1022.3
2024-04-15T04:32:00+09:00,0.3,���쐼,0.8,���쐼,13.1,88,0,0,0,0,0,0,1008.2,1022.2
2024-04-15T04:33:00+09:00,0.3,���쐼,0.8,���쐼,12.9,87.4,0,0,0,0,0,0,1008.2,1022.2
2024-04-15T04:34:00+09:00,0.3,�쐼,0.8,���쐼,12.6,87.3,0,0,0,0,0,0,1008.3,1022.4
2024-04-15T04:35:00+09:00,0.3,�쐼,0.8,���쐼,12.6,88.6,0,0,0,0,0,0,1008.3,1022.4
2024-04-15T04:36:00+09:00,0.3,�쐼,0.8,���쐼,12.5,89.1,0,0,0,0,0,0,1008.3,1022.4
2024-04-15T04:37:00+09:00,0.3,�쐼,0.7,��쐼,12.6,90.1,0,0,0,0,0,0,1008.3,1022.4
2024-04-15T04:38:00+09:00,0.3,�쐼,0.9,��쐼,12.4,89,0,0,0,0,0,0,1008.3,1022.4
2024-04-15T04:39:00+09:00,0.3,��쐼,1.3,��쐼,12.3,89.2,0,0,0,0,0,0,1008.4,1022.5
2024-04-15T04:40:00+09:00,0.4,��쐼,1.6,�쐼,12.5,89.9,0,0,0,0,0,0,1008.4,1022.5
2024-04-15T04:41:00+09:00,0.5,��쐼,1.6,�쐼,12.4,89.3,0,0,0,0,0,0,1008.4,1022.5
2024-04-15T04:42:00+09:00,0.6,��쐼,1.6,�쐼,12.5,89.7,0,0,0,0,0,0,1008.4,1022.5
2024-04-15T04:43:00+09:00,0.7,��쐼,1.8,��쐼,12.4,90.3,0,0,0,0,0,0,1008.3,1022.4
2024-04-15T04:44:00+09:00,0.7,��쐼,1.8,��쐼,12.4,91.2,0,0,0,0,0,0,1008.3,1022.4
2024-04-15T04:45:00+09:00,0.8,�쐼,1.8,��쐼,12.4,91.6,0,0,0,0,0,0,1008.3,1022.4
2024-04-15T04:46:00+09:00,0.9,�쐼,1.9,��쐼,12.5,92,0,0,0,0,0,0,1008.3,1022.4
2024-04-15T04:47:00+09:00,0.9,�쐼,1.9,��쐼,12.4,91.6,0,0,0,0,0,0,1008.3,1022.4
2024-04-15T04:48:00+09:00,1,�쐼,1.9,��쐼,12.3,91.6,0,0,0,0,0,0,1008.3,1022.4
2024-04-15T04:49:00+09:00,1,�쐼,1.9,��쐼,12.3,91.8,0,0,0,0,0,0,1008.3,1022.4
2024-04-15T04:50:00+09:00,1,�쐼,1.9,��쐼,12.4,92.4,0,0,0,0,0,0,1008.3,1022.4
2024-04-15T04:51:00+09:00,1,�쐼,1.9,��쐼,12.3,92.1,0,0,0,0,0,0,1008.3,1022.4
2024-04-15T04:52:00+09:00,1.1,�쐼,1.9,��쐼,12.3,91.7,0,0,0,0,0,0,1008.4,1022.5
2024-04-15T04:53:00+09:00,1,�쐼,1.9,��쐼,12.3,91.7,0,0,0,0,0,0,1008.3,1022.4
2024-04-15T04:54:00+09:00,0.9,�쐼,1.9,��쐼,12.4,91.8,0,0,0,0,0,0,1008.3,1022.4
2024-04-15T04:55:00+09:00,0.9,�쐼,1.9,��쐼,12.2,91.5,0,0,0,0,0,0,1008.3,1022.4
2024-04-15T04:56:00+09:00,0.9,�쐼,1.7,��쐼,12.2,91.7,0,0,0,0,0,0,1008.3,1022.4
2024-04-15T04:57:00+09:00,0.9,�쐼,1.7,��쐼,12.3,91.8,0,0,0,0,0,0,1008.4,1022.5
2024-04-15T04:58:00+09:00,0.9,�쐼,1.7,��쐼,12.2,91.5,0,0,0,0,0,0,1008.3,1022.4
2024-04-15T04:59:00+09:00,0.8,�쐼,1.7,��쐼,12.3,91.7,0,0,0,0,0,0,1008.4,1022.5
2024-04-15T05:00:00+09:00,0.8,�쐼,1.7,��쐼,12.3,91.7,0,0,0,0,0,0,1008.3,1022.4
2024-04-15T05:01:00+09:00,0.7,�쐼,1.6,��쐼,12.3,91.5,0,0,0,0,0,0,1008.4,1022.5
2024-04-15T05:02:00+09:00,0.7,�쐼,1.6,��쐼,12.6,91.6,0,0,0,0,0,0,1008.4,1022.5
2024-04-15T05:03:00+09:00,0.7,�쐼,1.6,��쐼,12.2,90.5,0,0,0,0,0,0,1008.4,1022.5
2024-04-15T05:04:00+09:00,0.7,�쐼,1.6,��쐼,12.3,91.3,0,0,0,0,0,0,1008.4,1022.5
2024-04-15T05:05:00+09:00,0.7,�쐼,1.6,��쐼,12.2,91.9,0,0,0,0,0,0,1008.4,1022.5
2024-04-15T05:06:00+09:00,0.7,�쐼,1.6,��쐼,12.1,92.3,0,0,0,0,0,0,1008.4,1022.5
2024-04-15T05:07:00+09:00,0.7,�쐼,1.6,��쐼,12.2,92.4,0,0,0,0,0,0,1008.4,1022.5
2024-04-15T05:08:00+09:00,0.7,�쐼,1.6,��쐼,12.3,92.8,0,0,0,0,0,0,1008.4,1022.5
2024-04-15T05:09:00+09:00,0.7,�쐼,1.6,��쐼,12.5,92.8,0,0,0,0,0,0,1008.4,1022.5